This demonstration page uses our WeatherBlox Daily Observations layout. Learn more.

Left ArrowRight Arrow

44.8408, -93.29828

Hourly Observations for July 9, 2016

Temp ( °F °C ) Dew Point ( °F °C ) Humidity (%) Winds ( mph kmh ) Pressure ( in mb ) Visibility ( mi km ) Precip ( " mm )
12:53 am 00:53 Clear 68 20 59 15 73 73 NNE 5 7 30.00 1016 10 16 0.00 0.00
1:53 am 01:53 Clear 67 19.4 60 15.6 79 79 NE 3 6 30.02 1017 10 16 0.00 0.00
2:53 am 02:53 Clear 67 19.4 60 15.6 79 79 Calm 30.04 1017 10 16 0.00 0.00
3:53 am 03:53 Clear 64 17.8 60 15.6 87 87 SE 3 6 30.05 1018 10 16 0.00 0.00
4:53 am 04:53 Clear 64 17.8 60 15.6 87 87 ENE 3 6 30.06 1018 10 16 0.00 0.00
5:53 am 05:53 Sunny 64 17.8 59 15 84 84 Calm 30.06 1018 10 16 0.00 0.00
6:53 am 06:53 Sunny 65 18.3 59 15 81 81 E 7 11 30.06 1018 10 16 0.00 0.00
7:53 am 07:53 Sunny 67 19.4 58 14.4 73 73 SE 7 11 30.07 1018 10 16 0.00 0.00
8:53 am 08:53 Sunny 70 21.1 60 15.6 71 71 Calm 30.08 1019 10 16 0.00 0.00
9:53 am 09:53 Sunny 72 22.2 58 14.4 61 61 SSE 5 7 30.09 1019 10 16 0.00 0.00
10:53 am 10:53 Sunny 75 23.9 59 15 58 58 ESE 7 11 30.08 1019 10 16 0.00 0.00
11:53 am 11:53 Sunny 77 25 59 15 54 54 E 8 13 30.08 1019 10 16 0.00 0.00
12:53 pm 12:53 Mostly Sunny 78 25.6 57 13.9 48 48 VRB 3 6 30.07 1018 10 16 0.00 0.00
1:53 pm 13:53 Partly Cloudy 79 26.1 58 14.4 49 49 VRB 6 9 30.06 1018 10 16 0.00 0.00
2:53 pm 14:53 Partly Cloudy 81 27.2 58 14.4 45 45 SE 10 17 30.05 1018 10 16 0.00 0.00
3:53 pm 15:53 Partly Cloudy 81 27.2 59 15 47 47 SE 9 15 30.05 1018 10 16 0.00 0.00
4:53 pm 16:53 Partly Cloudy 81 27.2 59 15 47 47 E 9 15 30.04 1017 10 16 0.00 0.00
5:53 pm 17:53 Partly Cloudy 81 27.2 58 14.4 45 45 SE 13 20 30.02 1017 10 16 0.00 0.00
6:53 pm 18:53 Partly Cloudy 80 26.7 60 15.6 51 51 SSE 13 20 29.99 1016 10 16 0.00 0.00
7:53 pm 19:53 Partly Cloudy 79 26.1 60 15.6 52 52 SE 8 13 29.99 1016 10 16 0.00 0.00
8:53 pm 20:53 Partly Cloudy 76 24.4 61 16.1 60 60 SE 9 15 29.98 1015 10 16 0.00 0.00
9:53 pm 21:53 Partly Cloudy 75 23.9 61 16.1 62 62 SE 9 15 29.98 1015 10 16 0.00 0.00
10:53 pm 22:53 Partly Cloudy 73 22.8 61 16.1 66 66 SE 8 13 29.97 1015 10 16 0.00 0.00
11:53 pm 23:53 Partly Cloudy 73 22.8 60 15.6 64 64 SE 9 15 29.97 1015 10 16 0.00 0.00

Powered by AerisWeather